2018-097D (43754 NORAD) Tracking and Keplerian Element Data

This shows tracking and keplerian element data for the satellite.

Feedback or suggestion? Click here.




ElementValue
Catalog43754
Name2018-097D
Epoch Orbit378
Epoch Day363.7081949
Epoch Year2018
RAAN113.5881
Inclination82.514
Eccentricity0.0218318
Argument of Perigee202.3652
Mean Anonmoly156.7819
Mean Motion12.80065115
Decay Rate7.6E-07
L11 43754U 18097D 18363.70819490 .00000076 00000-0 25983-3 0 9990
L22 43754 82.5140 113.5881 0218318 202.3652 156.7819 12.80065115 3789

Live tracking and technical data element details for 2018-097D (NORAD 43754). 2018-097D can be tracked NOW for your location showing map with azimuth and elevation plus other details from your city location.

Track the satellite on the map from your city or location and see movement details for azimuth, elevation, latitude, longitude, range, height, and movement on the map or in text.







IsCatalogInMostPopularTable: catalog: 43754, numindb: 52
Update: records affected: 1



GetName: 43754 2018-097D

Hit Count: updated at: Wed, 24 Apr 2019 18:17:58 GMT